Location: Kershaw
(34.5481°N, 80.5823°W)
Time: 05:26:27
(UTC+00:00)

Transit 2A Rocket - Pass Details

Date: 09 October 2022
Orbit: 589 x 911 km, 66.7° (Epoch: 27 November)

Event Time Altitude Azimuth Distance (km) Brightness Sun altitude
Exits shadow 09:36:20 38° 342° (NNW) 901 5.2 -22.7°
Drops below altitude 10° 09:39:25 10° 15° (NNE) 1,927 7.3 -22.1°
Sets 09:41:45 0° 21° (NNE) 2,849 8.3 -21.6°
